Location: Wilsall
(45.9940°N, 110.6590°W)
Time: 17:29:19
(UTC-06:00)

Daily predictions for brighter satellites

Satellite Brightness Start Highest point End
(mag) Time Altitude Azimuth Time Altitude Azimuth Time Altitude Azimuth
Cosmos 2219 3.3 21:52:50 10° S 21:58:28 60° ESE 22:04:08 10° NNE
Cosmos 1271 Rocket 4.0 21:56:54 10° NNE 22:00:13 27° ENE 22:03:33 10° SE
Cosmos 2237 Rocket 3.4 21:56:18 10° N 22:01:24 32° NE 22:06:28 10° ESE
Cosmos 2333 4.4 21:57:51 10° NNW 22:03:35 68° ENE 22:09:19 10° SE
Cosmos 2322 4.5 21:59:41 10° NW 22:05:13 51° WSW 22:10:42 10° S
Cosmos 405 4.4 22:02:48 10° NNW 22:06:13 39° W 22:09:36 10° SSW
CZ-4B R/B 4.0 22:04:29 10° NNE 22:09:33 44° E 22:14:29 10° S
Aureole 3 4.2 22:05:02 10° S 22:11:26 84° E 22:16:27 10° N
MetOp-B 4.2 22:06:20 10° SSE 22:11:41 83° ENE 22:17:05 10° NNW
SL-14 R/B 3.8 22:08:01 10° SSE 22:11:46 43° E 22:15:35 10° NNE
Cosmos 2360 Rocket 3.2 22:06:43 10° NW 22:12:02 43° WSW 22:17:21 10° S
PSLV R/B 3.4 22:12:01 10° S 22:15:04 68° WSW 22:18:07 10° NNW
NOSS 0 Rocket 4.3 22:09:33 10° NNW 22:15:36 53° NE 22:21:22 11° SE
Cosmos 1680 Rocket 4.5 22:13:08 10° NNW 22:18:07 44° WSW 22:23:06 10° S
Cosmos 1626 4.1 22:16:08 10° ESE 22:18:10 15° E 22:20:19 10° NE
Meteor 1-27 4.2 22:13:49 10° N 22:19:33 83° ENE 22:25:10 10° SSE
NOAA 11 4.4 22:14:34 10° SSE 22:19:54 58° ENE 22:25:15 10° N
H-2A R/B 3.1 22:17:35 11° SE 22:22:18 35° ENE 22:27:12 10° N
Cosmos 1674 4.3 22:19:32 10° SW 22:23:07 36° WNW 22:26:44 10° N
SPOT 5 3.4 22:22:24 10° S 22:26:56 56° W 22:31:46 10° NNW
Cosmos 2151 3.9 22:24:18 10° SSW 22:28:22 49° WNW 22:32:29 10° N
YAOGAN 6 2.7 22:24:47 10° S 22:28:24 79° WSW 22:32:01 10° NNW
Lacrosse 4 Rocket 3.4 22:27:23 10° N 22:30:48 21° NE 22:34:12 10° E
Cosmos 1898 Rocket 3.5 22:27:56 10° S 22:33:03 65° ESE 22:38:14 10° NNE
SPOT 1/Viking Rocket 3.6 22:29:29 10° SSE 22:34:39 88° WSW 22:39:51 10° NNW
Cosmos 1300 3.1 22:31:04 10° NNW 22:34:52 61° W 22:38:39 10° S
Cosmos 858 Rocket 4.5 22:32:10 10° S 22:37:19 65° ESE 22:42:29 10° NNE
Cosmos 2058 3.3 22:33:33 10° SSW 22:37:37 63° W 22:41:43 10° N
Cosmos 2227 Rocket 2.8 22:37:36 10° S 22:42:44 37° ESE 22:47:55 10° NE
Cosmos 2242 Rocket 3.6 22:38:26 10° N 22:42:57 87° E 22:46:51 14° S
Cosmos 292 Rocket 3.8 22:38:31 10° NNW 22:43:18 84° WSW 22:47:11 15° SSE
Cosmos 2150 Rocket 4.1 22:38:10 10° SSW 22:43:37 81° ESE 22:49:07 10° NNE
Cosmos 1862 Rocket 4.2 22:40:12 10° N 22:44:20 41° ENE 22:47:12 18° SE
Sich 1 3.1 22:40:53 10° S 22:45:18 89° WNW 22:49:44 10° N
CARTOSAT-1 4.1 22:45:15 17° SE 22:48:16 46° ENE 22:52:25 10° N
Meteor 1-11 4.5 22:44:19 10° SSW 22:50:04 74° WNW 22:55:48 10° N
Cosmos 1633 Rocket 3.1 22:46:07 10° S 22:50:30 83° W 22:54:54 10° N
COSMOS 2455 3.6 22:46:29 10° NNW 22:52:16 45° NE 22:57:11 14° ESE
Landsat 7 3.9 22:49:13 17° SSE 22:52:53 73° ENE 22:57:38 10° N
Cosmos 1346 3.7 22:52:16 24° SE 22:53:32 36° E 22:56:23 10° NNE
NOSS 3-1 (A) 3.4 22:48:23 10° SSW 22:54:20 84° SE 23:01:00 10° NE
USA 245 3.5 22:52:56 15° SSW 22:54:34 31° WSW 22:56:39 10° NW
SL-16 R/B 3.2 22:50:28 10° NNW 22:55:45 38° NE 23:00:04 15° ESE
Cosmos 2333 Rocket 2.2 22:51:20 10° NNW 22:57:08 86° ENE 23:01:24 19° SSE
Cosmos 1455 2.4 22:53:33 10° N 22:57:18 54° ENE 22:59:30 23° SSE
ERBS 2.8 22:57:32 10° SSW 23:00:50 39° SE 23:04:06 10° ENE
DELTA 2 DEB (DPAF) 4.2 23:03:05 18° S 23:06:22 78° WSW 23:10:52 10° NNW
ARGOS 3.7 23:03:47 12° S 23:08:36 55° W 23:13:54 10° NNW
COSMOS 2428 4.1 23:03:40 10° NW 23:08:37 32° WSW 23:13:34 10° SSW
Terra 1.8 23:05:35 21° SSE 23:08:45 73° ENE 23:13:31 10° N
Cosmos 2297 Rocket 2.6 23:05:33 17° S 23:09:32 43° ESE 23:14:51 10° NE
Cosmos 1726 3.8 23:06:21 10° NNW 23:09:41 30° W 23:13:01 10° SSW
DMSP B5D2-2 4.2 23:06:21 10° NNE 23:11:30 54° E 23:15:00 20° S
Cosmos 2219 Rocket 2.6 23:06:57 10° NNW 23:12:26 57° WSW 23:16:27 18° S
USA 32 4.5 23:08:04 10° NNW 23:13:15 60° W 23:17:50 13° SSW
IGS 5A 3.4 23:12:54 25° SSE 23:15:18 76° ENE 23:19:30 10° N
Spot 4 3.9 23:13:36 23° SSE 23:16:36 69° ENE 23:21:27 10° N
ATLAS 2AS CENTAUR R/B 3.1 23:09:27 10° SSW 23:16:44 56° ESE 23:24:34 10° NE
BREEZE-M TANK 4.1 22:58:55 10° WSW 23:20:18 66° SSE 23:24:44 10° E
Cosmos 1900 4.4 23:17:31 10° NNW 23:22:31 70° NE 23:25:23 25° SE
Tiangong 1 1.4 23:20:05 10° WSW 23:23:02 41° S 23:23:06 41° SSE
Cosmos 1869 3.3 23:20:02 10° N 23:24:07 89° W 23:26:11 28° S
OAO 2 Rocket 4.4 23:22:23 10° SW 23:26:39 25° S 23:27:04 24° S
Meteor 1-4 Rocket 4.5 23:24:02 10° NW 23:27:10 25° W 23:29:55 12° SW
ATLAS 3B R/B 2.8 23:20:49 10° NW 23:27:56 77° NE 23:32:31 22° SE
Cosmos 1937 Rocket 4.1 23:25:03 10° SW 23:30:12 58° WNW 23:35:20 10° NNE
Cosmos 1980 4.1 23:27:55 10° NW 23:33:26 53° WSW 23:36:52 22° S
Okean 1-7 4.0 23:30:10 10° N 23:34:06 34° ENE 23:35:44 25° ESE
CZ-4C R/B 4.4 23:33:07 19° SSW 23:35:01 31° W 23:38:10 10° NNW
Cosmos 1241 Rocket 4.4 23:32:31 10° SW 23:38:44 88° NW 23:45:04 10° NE
Cosmos 990 Rocket 4.3 23:34:05 10° SSW 23:39:11 67° WNW 23:44:20 10° NNE
USA 238 DEB 4.3 23:33:13 10° NW 23:40:07 53° NE 23:45:45 16° ESE
USA 238 4.3 23:33:19 10° NW 23:40:13 52° NE 23:45:52 15° ESE
Cosmos 1470 Rocket 4.4 23:39:44 13° SSW 23:43:18 46° WNW 23:47:29 10° N
Cosmos 1933 Rocket 4.4 23:40:44 14° SSW 23:44:25 48° WNW 23:48:45 10° N
Cosmos 1703 Rocket 3.5 23:41:14 10° N 23:45:37 73° E 23:47:23 35° SSE
Cosmos 2237 Rocket 2.8 23:40:12 10° NW 23:45:39 47° WSW 23:48:54 23° S
NOSS 2-3 (E) 4.5 23:49:52 32° SSE 23:51:21 39° ESE 23:56:33 10° NE
Cosmos 2082 4.0 23:47:28 10° SW 23:53:10 68° WNW 23:58:54 10° NNE
Cosmos 1626 3.3 23:50:49 18° SW 23:53:14 40° WNW 23:56:49 10° N
